Location: Tamazert
(32.6352°N, 5.2072°W)
Time: 16:35:38
(UTC+00:00)

Vanguard 3 - Pass Details

Date: 06 October 2022
Orbit: 509 x 3255 km, 33.3° (Epoch: 08 December)

Event Time Altitude Azimuth Distance (km) Brightness Sun altitude
Rises 12:11:28 0° 281° (W) 3,308 10.2 52.1°
Reaches altitude 10° 12:13:30 10° 277° (W) 2,590 9.8 52.1°
Maximum altitude 12:19:37 60° 198° (SSW) 1,455 10.8 52.1°
Drops below altitude 10° 12:30:39 10° 122° (ESE) 4,515 11.3 51.8°
Sets 12:35:19 0° 120° (ESE) 5,967 11.7 51.6°
